EW5239 Weather Reports


time (UTC)temp
C
wind
direction
speed
KPH
gust
KPH
rain 1hr
cm
rain 24hr
cm
rain mn
cm
humidity
%
barometer
mb
20260505093225 25 218 11.3 16.1 0.00 0.00 0.00 29 1008.3
20260505093004 25 208 9.7 16.1 0.00 0.00 0.00 33 1007.2
20260505092725 25 237 11.3 12.9 0.00 0.00 0.00 31 1008.8
20260505092504 25 241 9.7 12.9 0.00 0.00 0.00 34 1007.3
20260505092225 25 254 9.7 12.9 0.00 0.00 0.00 31 1008.8
20260505092004 25 253 9.7 12.9 0.00 0.00 0.00 34 1007.2
20260505091725 25 256 9.7 14.5 0.00 0.00 0.00 31 1008.7
20260505091504 25 259 9.7 12.9 0.00 0.00 0.00 35 1007.3
20260505091225 25 246 9.7 14.5 0.00 0.00 0.00 31 1008.8
20260505091004 24 242 9.7 12.9 0.00 0.00 0.00 35 1007.5
20260505090725 24 226 9.7 14.5 0.00 0.00 0.00 34 1008.8
20260505090504 24 220 11.3 17.7 0.00 0.00 0.00 35 1007.3
20260505090231 24 244 11.3 16.1 0.00 0.00 0.00 31 1008.9
20260505090005 24 234 12.9 17.7 0.00 0.00 0.00 35 1007.4
20260505085725 24 243 12.9 17.7 0.00 0.00 0.00 34 1009.0
20260505085504 24 246 12.9 17.7 0.00 0.00 0.00 35 1007.4
20260505085225 24 217 11.3 17.7 0.00 0.00 0.00 33 1008.9
20260505085004 23 239 11.3 16.1 0.00 0.00 0.00 35 1007.4
20260505084724 23 261 11.3 17.7 0.00 0.00 0.00 34 1009.0
20260505084504 23 237 11.3 17.7 0.00 0.00 0.00 38 1007.4
20260505084004 23 244 11.3 17.7 0.00 0.00 0.00 38 1007.4
20260505083725 23 230 9.7 16.1 0.00 0.00 0.00 36 1009.1
20260505083504 23 256 9.7 14.5 0.00 0.00 0.00 39 1007.6
20260505083224 23 227 9.7 16.1 0.00 0.00 0.00 37 1009.2
20260505083005 23 225 9.7 16.1 0.00 0.00 0.00 39 1007.6
20260505082725 23 216 9.7 16.1 0.00 0.00 0.00 38 1009.2
20260505082225 22 223 11.3 17.7 0.00 0.00 0.00 37 1009.2
20260505081724 22 230 12.9 17.7 0.00 0.00 0.00 35 1009.4
20260505081224 22 229 9.7 12.9 0.00 0.00 0.00 35 1009.3
20260505081004 22 238 11.3 12.9 0.00 0.00 0.00 37 1007.7
20260505080725 22 226 8.0 11.3 0.00 0.00 0.00 35 1009.4
20260505080230 22 214 8.0 9.7 0.00 0.00 0.00 36 1009.4
20260505080004 22 222 6.4 11.3 0.00 0.00 0.00 39 1007.9
20260505075725 22 219 6.4 9.7 0.00 0.00 0.00 36 1009.5
20260505075504 22 218 8.0 12.9 0.00 0.00 0.00 38 1007.8
20260505075224 22 239 8.0 11.3 0.00 0.00 0.00 36 1009.5
20260505075004 21 220 9.7 12.9 0.00 0.00 0.00 39 1007.7
20260505074725 21 244 8.0 11.3 0.00 0.00 0.00 37 1009.3
20260505074225 21 263 9.7 12.9 0.00 0.00 0.00 36 1009.6
20260505074003 21 265 9.7 12.9 0.00 0.00 0.00 40 1007.9
20260505073725 21 244 9.7 12.9 0.00 0.00 0.00 39 1009.6
20260505073504 21 240 8.0 12.9 0.00 0.00 0.00 42 1008.0
20260505073225 21 218 8.0 12.9 0.00 0.00 0.00 38 1009.6
20260505073004 21 247 8.0 12.9 0.00 0.00 0.00 41 1008.0
20260505072725 20 240 8.0 9.7 0.00 0.00 0.00 42 1009.6
20260505072503 20 254 8.0 9.7 0.00 0.00 0.00 44 1008.1
20260505072225 20 231 8.0 11.3 0.00 0.00 0.00 43 1009.5
20260505072004 20 240 8.0 9.7 0.00 0.00 0.00 44 1008.3
20260505071725 20 221 6.4 11.3 0.00 0.00 0.00 43 1009.7
20260505071504 20 220 6.4 9.7 0.00 0.00 0.00 44 1008.0
20260505071225 20 226 6.4 8.0 0.00 0.00 0.00 43 1009.6
20260505071003 20 216 8.0 11.3 0.00 0.00 0.00 45 1008.0
20260505070724 20 205 8.0 12.9 0.00 0.00 0.00 44 1009.4
20260505070231 19 203 8.0 12.9 0.00 0.00 0.00 43 1009.6
20260505070004 20 207 9.7 12.9 0.00 0.00 0.00 45 1008.1
20260505065725 19 198 9.7 12.9 0.00 0.00 0.00 43 1009.6
20260505065503 20 198 9.7 12.9 0.00 0.00 0.00 44 1008.2
20260505065225 19 194 9.7 12.9 0.00 0.00 0.00 42 1009.9
20260505065004 19 211 9.7 12.9 0.00 0.00 0.00 44 1008.1
20260505064725 19 207 9.7 12.9 0.00 0.00 0.00 41 1009.8
20260505064504 19 239 9.7 12.9 0.00 0.00 0.00 44 1008.1
20260505064224 18 225 8.0 12.9 0.00 0.00 0.00 41 1009.8
20260505064004 19 242 6.4 9.7 0.00 0.00 0.00 45 1008.2
20260505063724 18 223 6.4 9.7 0.00 0.00 0.00 45 1009.8
20260505063504 19 217 6.4 11.3 0.00 0.00 0.00 45 1008.3
20260505062724 18 205 6.4 9.7 0.00 0.00 0.00 45 1009.9
20260505062504 18 213 6.4 9.7 0.00 0.00 0.00 46 1008.3
20260505062225 17 205 4.8 9.7 0.00 0.00 0.00 46 1009.8
20260505062004 18 207 6.4 9.7 0.00 0.00 0.00 48 1008.2
20260505061725 17 211 4.8 8.0 0.00 0.00 0.00 52 1009.7
20260505061504 18 200 4.8 8.0 0.00 0.00 0.00 51 1008.4
20260505061004 18 130 4.8 8.0 0.00 0.00 0.00 52 1008.5
20260505060724 17 184 3.2 4.8 0.00 0.00 0.00 57 1009.9
20260505060231 16 153 3.2 3.2 0.00 0.00 0.00 61 1009.9
20260505060004 18 146 3.2 3.2 0.00 0.00 0.00 58 1008.4
20260505055725 16 139 3.2 4.8 0.00 0.00 0.00 62 1010.1
20260505055504 18 150 3.2 3.2 0.00 0.00 0.00 61 1008.3
20260505055225 16 146 1.6 4.8 0.00 0.00 0.00 63 1010.1
20260505055003 17 153 3.2 3.2 0.00 0.00 0.00 64 1008.3
20260505054725 16 152 1.6 3.2 0.00 0.00 0.00 65 1010.0
20260505054504 17 171 3.2 4.8 0.00 0.00 0.00 65 1008.4
20260505054224 15 169 3.2 4.8 0.00 0.00 0.00 66 1010.0
20260505053724 15 155 3.2 4.8 0.00 0.00 0.00 68 1010.2
20260505053504 16 138 4.8 4.8 0.00 0.00 0.00 72 1008.5
20260505053225 15 118 3.2 4.8 0.00 0.00 0.00 73 1010.1
20260505053004 15 132 4.8 4.8 0.00 0.00 0.00 75 1008.5
20260505052725 15 120 3.2 4.8 0.00 0.00 0.00 73 1010.2
20260505052504 15 134 3.2 6.4 0.00 0.00 0.00 77 1008.4
20260505052225 15 101 3.2 4.8 0.00 0.00 0.00 74 1010.0
20260505052004 14 96 4.8 6.4 0.00 0.00 0.00 81 1008.4
20260505051725 15 70 3.2 6.4 0.00 0.00 0.00 76 1010.0
20260505051504 13 90 4.8 6.4 0.00 0.00 0.00 82 1008.4
20260505051004 13 108 4.8 6.4 0.00 0.00 0.00 85 1008.6
20260505050725 14 108 4.8 6.4 0.00 0.00 0.00 82 1010.1
20260505050504 12 115 4.8 6.4 0.00 0.00 0.00 85 1008.6
20260505050230 13 117 4.8 6.4 0.00 0.00 0.00 85 1010.0
20260505041504 10 0 0.0 0.0 0.00 0.00 0.00 88 1008.5
20260505041124 10 90 0.0 1.6 0.00 0.00 0.00 92 1010.2
20260505041004 10 0 0.0 0.0 0.00 0.00 0.00 88 1008.3
20260505040625 10 86 0.0 1.6 0.00 0.00 0.00 92 1010.0
20260505040504 10 0 0.0 0.0 0.00 0.00 0.00 88 1008.4
20260505040130 10 117 0.0 1.6 0.00 0.00 0.00 93 1010.2
20260505040005 10 0 0.0 0.0 0.00 0.00 0.00 88 1008.3
20260505035624 9 130 0.0 1.6 0.00 0.00 0.00 93 1010.3
20260505035504 10 90 0.0 1.6 0.00 0.00 0.00 88 1008.4
20260505035124 9 130 0.0 3.2 0.00 0.00 0.00 92 1010.1
20260505035004 10 90 0.0 1.6 0.00 0.00 0.00 87 1008.3
20260505034624 9 120 1.6 3.2 0.00 0.00 0.00 91 1010.5
20260505034003 10 128 1.6 4.8 0.00 0.00 0.00 88 1008.5
20260505033624 9 83 1.6 3.2 0.00 0.00 0.00 90 1010.1
20260505033504 10 135 0.0 3.2 0.00 0.00 0.00 86 1008.5
20260505033125 8 90 0.0 1.6 0.00 0.00 0.00 89 1010.3
20260505032624 8 0 0.0 0.0 0.00 0.00 0.00 90 1010.3
20260505032503 10 0 0.0 0.0 0.00 0.00 0.00 86 1008.4
20260505032124 8 0 0.0 0.0 0.00 0.00 0.00 88 1010.2
20260505032004 10 0 0.0 0.0 0.00 0.00 0.00 86 1008.4
20260505031624 9 0 0.0 0.0 0.00 0.00 0.00 88 1010.3
20260505031504 10 0 0.0 0.0 0.00 0.00 0.00 85 1008.4
20260505031125 9 0 0.0 0.0 0.00 0.00 0.00 88 1010.3
20260505031004 10 0 0.0 0.0 0.00 0.00 0.00 85 1008.4
20260505030624 9 135 0.0 1.6 0.00 0.00 0.00 87 1010.4
20260505030130 9 135 0.0 1.6 0.00 0.00 0.00 87 1010.3
20260505025624 10 135 0.0 1.6 0.00 0.00 0.00 87 1010.4
20260505025124 10 135 0.0 1.6 0.00 0.00 0.00 86 1010.5
20260505025004 10 0 0.0 0.0 0.00 0.00 0.00 85 1008.5
20260505024624 10 90 0.0 1.6 0.00 0.00 0.00 87 1010.3
20260505024124 10 108 0.0 1.6 0.00 0.00 0.00 87 1010.2
20260505024004 10 123 0.0 3.2 0.00 0.00 0.00 85 1008.7
20260505023624 10 104 1.6 1.6 0.00 0.00 0.00 87 1010.4
20260505023504 10 104 1.6 3.2 0.00 0.00 0.00 85 1008.7
20260505023124 10 91 1.6 3.2 0.00 0.00 0.00 86 1010.5
20260505023004 10 96 1.6 3.2 0.00 0.00 0.00 84 1008.6
20260505022625 10 90 0.0 3.2 0.00 0.00 0.00 86 1010.7
20260505022504 10 0 0.0 0.0 0.00 0.00 0.00 84 1008.7
20260505022004 10 0 0.0 0.0 0.00 0.00 0.00 84 1008.7
20260505021624 10 0 0.0 0.0 0.00 0.00 0.00 85 1010.3
20260505021504 10 0 0.0 0.0 0.00 0.00 0.00 84 1008.8
20260505021004 10 0 0.0 0.0 0.00 0.00 0.00 83 1008.8
20260505020624 10 0 0.0 0.0 0.00 0.00 0.00 84 1010.4
20260505020130 10 0 0.0 0.0 0.00 0.00 0.00 84 1010.6
20260505020004 11 0 0.0 0.0 0.00 0.00 0.00 83 1008.8
20260505015624 10 0 0.0 0.0 0.00 0.00 0.00 83 1010.6
20260505015504 11 0 0.0 0.0 0.00 0.00 0.00 82 1009.0
20260505015125 10 55 0.0 3.2 0.00 0.00 0.00 83 1010.7
20260505015004 11 0 0.0 0.0 0.00 0.00 0.00 82 1008.9
20260505014625 11 52 0.0 3.2 0.00 0.00 0.00 83 1010.7
20260505014504 11 0 0.0 0.0 0.00 0.00 0.00 82 1008.9
20260505014124 11 45 0.0 1.6 0.00 0.00 0.00 82 1010.6
20260505014004 11 0 0.0 0.0 0.00 0.00 0.00 82 1008.9
20260505013624 11 135 0.0 1.6 0.00 0.00 0.00 82 1010.5
20260505013504 11 135 0.0 1.6 0.00 0.00 0.00 82 1008.9
20260505013003 11 138 1.6 3.2 0.00 0.00 0.00 82 1008.9
20260505012624 11 142 1.6 3.2 0.00 0.00 0.00 83 1010.5
20260505012504 11 144 1.6 3.2 0.00 0.00 0.00 82 1008.8
20260505012124 11 150 0.0 1.6 0.00 0.00 0.00 83 1010.6
20260505012004 11 151 1.6 3.2 0.00 0.00 0.00 82 1008.9
20260505011624 11 157 0.0 3.2 0.00 0.00 0.00 83 1010.7
20260505011124 11 136 0.0 3.2 0.00 0.00 0.00 83 1010.7
20260505010625 11 102 0.0 1.6 0.00 0.00 0.00 83 1010.8
20260505010505 11 135 1.6 3.2 0.00 0.00 0.00 82 1009.1
20260505010005 11 162 1.6 3.2 0.00 0.00 0.00 82 1009.0
20260505005624 11 165 1.6 6.4 0.00 0.00 0.00 83 1010.7
20260505005504 11 165 1.6 6.4 0.00 0.00 0.00 82 1009.0
20260505004624 11 152 1.6 6.4 0.00 0.00 0.00 82 1011.0
20260505004504 11 120 1.6 3.2 0.00 0.00 0.00 81 1009.2
20260505004004 11 101 1.6 3.2 0.00 0.00 0.00 80 1009.1
20260505003624 11 89 1.6 3.2 0.00 0.00 0.00 82 1010.8
20260505003504 11 66 1.6 3.2 0.00 0.00 0.00 80 1009.1
20260505003124 11 80 1.6 3.2 0.00 0.00 0.00 82 1010.9
20260505003003 11 73 1.6 3.2 0.00 0.00 0.00 80 1009.1
20260505002124 11 181 0.0 1.6 0.00 0.00 0.00 82 1011.0
20260505001625 11 167 0.0 1.6 0.00 0.00 0.00 82 1011.0
20260505001503 12 174 1.6 3.2 0.00 0.00 0.00 79 1009.5
20260505001125 11 160 0.0 1.6 0.00 0.00 0.00 82 1011.0
20260505001004 12 174 1.6 3.2 0.00 0.00 0.00 79 1009.3
20260505000624 11 135 0.0 3.2 0.00 0.00 0.00 81 1011.3
20260505000504 12 170 1.6 3.2 0.00 0.00 0.00 79 1009.4
20260505000130 11 135 0.0 3.2 0.00 0.00 0.00 81 1011.1
20260505000004 12 147 1.6 3.2 0.00 0.00 0.00 79 1009.4
20260504235624 11 135 0.0 1.6 0.00 0.00 0.00 81 1011.2
20260504235504 12 135 0.0 1.6 0.00 0.00 0.00 78 1009.4
20260504235124 11 181 0.0 1.6 0.00 0.00 0.00 81 1011.2
20260504234625 11 173 1.6 3.2 0.00 0.00 0.00 81 1011.1
20260504234503 12 181 1.6 3.2 0.00 0.00 0.00 78 1009.5
20260504234124 11 175 1.6 3.2 0.00 0.00 0.00 80 1011.3
20260504234004 12 181 1.6 3.2 0.00 0.00 0.00 77 1009.5
20260504233625 11 177 0.0 1.6 0.00 0.00 0.00 79 1011.3
20260504233504 12 182 1.6 3.2 0.00 0.00 0.00 77 1009.6
20260504233124 11 166 0.0 1.6 0.00 0.00 0.00 78 1011.4
20260504233003 12 196 1.6 3.2 0.00 0.00 0.00 76 1009.5
20260504232625 11 0 0.0 0.0 0.00 0.00 0.00 77 1011.0
20260504232504 12 198 1.6 3.2 0.00 0.00 0.00 75 1009.5
20260504232124 11 0 0.0 0.0 0.00 0.00 0.00 76 1011.1
20260504231624 11 0 0.0 0.0 0.00 0.00 0.00 75 1011.4
20260504231504 12 0 0.0 0.0 0.00 0.00 0.00 74 1009.6
20260504231124 12 0 0.0 0.0 0.00 0.00 0.00 74 1011.3
20260504231004 12 1 0.0 1.6 0.00 0.00 0.00 74 1009.8
20260504230625 12 0 0.0 0.0 0.00 0.00 0.00 75 1011.4
20260504230130 12 0 0.0 0.0 0.00 0.00 0.00 75 1011.4
20260504230004 13 354 1.6 3.2 0.00 0.00 0.00 73 1009.8
20260504225625 12 0 0.0 0.0 0.00 0.00 0.00 74 1011.6
20260504225504 13 0 0.0 0.0 0.00 0.00 0.00 72 1009.7
20260504225124 12 0 0.0 0.0 0.00 0.00 0.00 73 1011.4
20260504225004 13 181 0.0 1.6 0.00 0.00 0.00 72 1009.9
20260504224624 12 0 0.0 0.0 0.00 0.00 0.00 73 1011.5
20260504224125 13 0 0.0 0.0 0.00 0.00 0.00 72 1011.4
20260504224004 13 270 0.0 1.6 0.00 0.00 0.00 70 1009.8
20260504223624 13 0 0.0 0.0 0.00 0.00 0.00 71 1011.6
20260504223504 13 255 1.6 3.2 0.00 0.00 0.00 70 1010.0
20260504223124 13 218 0.0 3.2 0.00 0.00 0.00 71 1011.5
20260504223003 13 233 1.6 3.2 0.00 0.00 0.00 69 1010.0
20260504222624 13 182 0.0 3.2 0.00 0.00 0.00 71 1011.8
20260504222504 14 225 0.0 3.2 0.00 0.00 0.00 69 1010.1
20260504222124 13 135 0.0 1.6 0.00 0.00 0.00 71 1011.7
20260504222004 14 0 0.0 0.0 0.00 0.00 0.00 69 1010.0
20260504221625 13 154 0.0 1.6 0.00 0.00 0.00 70 1011.6
20260504221125 13 209 0.0 1.6 0.00 0.00 0.00 69 1011.7
20260504221004 14 225 1.6 3.2 0.00 0.00 0.00 67 1009.9
20260504220625 13 225 0.0 1.6 0.00 0.00 0.00 68 1011.6
20260504220504 15 225 1.6 3.2 0.00 0.00 0.00 67 1009.9
20260504220131 14 208 0.0 1.6 0.00 0.00 0.00 67 1011.7
20260504220004 15 225 0.0 3.2 0.00 0.00 0.00 67 1009.9
20260504215504 15 225 0.0 1.6 0.00 0.00 0.00 65 1009.9
20260504215125 15 181 0.0 1.6 0.00 0.00 0.00 66 1011.7
20260504214624 15 181 0.0 3.2 0.00 0.00 0.00 65 1011.7
20260504214504 15 200 1.6 3.2 0.00 0.00 0.00 65 1010.1
20260504214124 15 154 1.6 3.2 0.00 0.00 0.00 65 1011.7
20260504213124 15 235 3.2 6.4 0.00 0.00 0.00 65 1011.7
20260504212504 15 181 3.2 6.4 0.00 0.00 0.00 64 1010.0
20260504212125 15 181 0.0 1.6 0.00 0.00 0.00 64 1011.6
20260504212003 15 181 1.6 3.2 0.00 0.00 0.00 63 1010.0
20260504211624 15 0 0.0 0.0 0.00 0.00 0.00 63 1011.5
20260504211504 15 181 1.6 3.2 0.00 0.00 0.00 63 1009.8
20260504211124 15 0 0.0 0.0 0.00 0.00 0.00 63 1011.7
20260504211003 16 0 0.0 0.0 0.00 0.00 0.00 62 1010.0
20260504210625 16 0 0.0 0.0 0.00 0.00 0.00 63 1011.4
20260504210504 16 181 0.0 3.2 0.00 0.00 0.00 62 1010.1
20260504210130 16 0 0.0 0.0 0.00 0.00 0.00 61 1011.4
20260504210005 16 181 0.0 3.2 0.00 0.00 0.00 61 1009.8
20260504205624 16 179 0.0 1.6 0.00 0.00 0.00 61 1011.3
20260504205504 16 195 1.6 3.2 0.00 0.00 0.00 61 1009.9
20260504205124 16 241 0.0 1.6 0.00 0.00 0.00 61 1011.5
20260504205004 16 213 1.6 3.2 0.00 0.00 0.00 60 1009.9
20260504204624 16 212 0.0 3.2 0.00 0.00 0.00 60 1011.5
20260504204504 16 202 1.6 3.2 0.00 0.00 0.00 60 1010.0
20260504204124 16 151 0.0 3.2 0.00 0.00 0.00 59 1011.6
20260504204004 16 314 1.6 3.2 0.00 0.00 0.00 59 1010.1
20260504203625 16 285 3.2 6.4 0.00 0.00 0.00 59 1011.5
20260504203503 17 330 4.8 8.0 0.00 0.00 0.00 58 1010.0
20260504203124 16 311 4.8 6.4 0.00 0.00 0.00 59 1011.6
20260504203004 17 332 4.8 8.0 0.00 0.00 0.00 58 1010.0
20260504202503 17 339 4.8 6.4 0.00 0.00 0.00 57 1010.1
20260504202125 17 356 1.6 4.8 0.00 0.00 0.00 55 1011.3
20260504202004 17 329 3.2 4.8 0.00 0.00 0.00 56 1009.8
20260504201504 17 214 1.6 3.2 0.00 0.00 0.00 55 1009.9
20260504201124 18 190 3.2 3.2 0.00 0.00 0.00 55 1011.4
20260504200624 18 181 3.2 4.8 0.00 0.00 0.00 54 1011.3
20260504200503 18 185 3.2 4.8 0.00 0.00 0.00 55 1009.8
20260504200130 18 183 3.2 4.8 0.00 0.00 0.00 54 1011.5
20260504195624 18 184 3.2 3.2 0.00 0.00 0.00 54 1011.4
20260504195503 18 187 3.2 4.8 0.00 0.00 0.00 55 1009.8
20260504195125 18 190 3.2 3.2 0.00 0.00 0.00 55 1011.4
20260504195004 18 205 3.2 3.2 0.00 0.00 0.00 55 1009.7
20260504194625 18 199 3.2 3.2 0.00 0.00 0.00 55 1011.4
20260504194503 18 216 3.2 3.2 0.00 0.00 0.00 55 1009.8
20260504194004 18 214 3.2 3.2 0.00 0.00 0.00 56 1009.8
20260504193624 18 208 3.2 4.8 0.00 0.00 0.00 55 1011.3
20260504193503 18 211 4.8 6.4 0.00 0.00 0.00 56 1009.7
20260504193125 17 201 3.2 4.8 0.00 0.00 0.00 55 1011.3
20260504193004 18 201 4.8 9.7 0.00 0.00 0.00 56 1009.7
20260504192625 17 192 4.8 9.7 0.00 0.00 0.00 56 1011.2
20260504192504 17 192 4.8 9.7 0.00 0.00 0.00 56 1009.8
20260504192124 17 186 4.8 9.7 0.00 0.00 0.00 57 1011.3
20260504192004 17 184 4.8 6.4 0.00 0.00 0.00 56 1009.8
20260504191624 17 175 3.2 4.8 0.00 0.00 0.00 56 1011.5
20260504191503 17 175 3.2 4.8 0.00 0.00 0.00 56 1009.7
20260504191125 17 170 3.2 4.8 0.00 0.00 0.00 56 1011.4
20260504191004 17 170 3.2 4.8 0.00 0.00 0.00 56 1009.6
20260504190624 17 165 1.6 3.2 0.00 0.00 0.00 56 1011.5
20260504190504 18 176 1.6 3.2 0.00 0.00 0.00 55 1009.6
20260504190130 17 168 0.0 1.6 0.00 0.00 0.00 55 1011.3
20260504190004 18 181 1.6 3.2 0.00 0.00 0.00 55 1009.6
20260504184504 19 165 1.6 3.2 0.00 0.00 0.00 51 1009.6
20260504184124 18 170 0.0 1.6 0.00 0.00 0.00 51 1011.4
20260504184004 19 174 1.6 3.2 0.00 0.00 0.00 50 1009.6
20260504183625 19 152 0.0 1.6 0.00 0.00 0.00 51 1011.1
20260504183504 20 181 0.0 1.6 0.00 0.00 0.00 48 1009.4
20260504183124 19 135 0.0 1.6 0.00 0.00 0.00 50 1011.2
20260504183004 20 149 0.0 3.2 0.00 0.00 0.00 48 1009.6
20260504182625 19 135 0.0 1.6 0.00 0.00 0.00 49 1011.2
20260504182504 20 140 1.6 3.2 0.00 0.00 0.00 48 1009.4
20260504182124 20 139 1.6 3.2 0.00 0.00 0.00 48 1011.2
20260504181624 20 140 1.6 3.2 0.00 0.00 0.00 46 1011.2
20260504181504 20 142 1.6 3.2 0.00 0.00 0.00 46 1009.4
20260504181125 20 135 0.0 1.6 0.00 0.00 0.00 45 1011.1
20260504181004 21 255 1.6 1.6 0.00 0.00 0.00 45 1009.5
20260504180624 21 270 0.0 1.6 0.00 0.00 0.00 43 1011.0
20260504180504 22 270 1.6 3.2 0.00 0.00 0.00 41 1009.4
20260504180130 21 270 0.0 3.2 0.00 0.00 0.00 43 1010.9
20260504180004 22 241 1.6 3.2 0.00 0.00 0.00 41 1009.3
20260504175624 22 234 0.0 3.2 0.00 0.00 0.00 41 1011.1
20260504175504 22 189 1.6 3.2 0.00 0.00 0.00 40 1009.3
20260504175125 22 181 0.0 1.6 0.00 0.00 0.00 40 1011.0
20260504175003 23 181 1.6 3.2 0.00 0.00 0.00 39 1009.4
20260504174625 22 186 1.6 3.2 0.00 0.00 0.00 39 1011.1
20260504174504 23 181 1.6 3.2 0.00 0.00 0.00 39 1009.3
20260504174125 22 186 1.6 3.2 0.00 0.00 0.00 38 1010.9
20260504174004 23 196 1.6 3.2 0.00 0.00 0.00 38 1009.0
20260504173624 23 181 0.0 1.6 0.00 0.00 0.00 37 1011.1
20260504173124 23 225 0.0 3.2 0.00 0.00 0.00 37 1011.0
20260504173003 23 225 1.6 3.2 0.00 0.00 0.00 36 1009.1
20260504172003 24 225 4.8 6.4 0.00 0.00 0.00 36 1009.3
20260504171625 23 216 4.8 6.4 0.00 0.00 0.00 36 1010.8
20260504171504 24 215 4.8 6.4 0.00 0.00 0.00 35 1009.2
20260504171004 24 217 6.4 8.0 0.00 0.00 0.00 35 1009.1
20260504170625 24 224 6.4 8.0 0.00 0.00 0.00 34 1010.8
20260504170504 25 225 6.4 9.7 0.00 0.00 0.00 35 1009.3
20260504170130 24 222 6.4 8.0 0.00 0.00 0.00 34 1011.0
20260504160130 25 231 11.3 17.7 0.00 0.00 0.00 29 1010.8
20260504151125 25 256 11.3 17.7 0.00 0.00 0.00 30 1011.5
20260504151004 25 226 12.9 17.7 0.00 0.00 0.00 33 1009.6
20260504150625 25 273 16.1 20.9 0.00 0.00 0.00 30 1011.3
20260504150503 25 235 14.5 17.7 0.00 0.00 0.00 33 1009.6
20260504150130 25 256 16.1 20.9 0.00 0.00 0.00 31 1011.5
20260504141003 26 186 14.5 20.9 0.00 0.00 0.00 32 1009.9
20260504140624 26 204 11.3 20.9 0.00 0.00 0.00 31 1011.5
20260504140130 26 219 11.3 12.9 0.00 0.00 0.00 32 1011.8
20260504130624 25 234 14.5 20.9 0.00 0.00 0.00 30 1012.1
20260504130503 25 232 12.9 17.7 0.00 0.00 0.00 34 1010.6
20260504130132 25 255 12.9 17.7 0.00 0.00 0.00 32 1012.2
20260504120130 25 250 12.9 17.7 0.00 0.00 0.00 33 1012.5
20260504110625 24 232 14.5 17.7 0.00 0.00 0.00 34 1013.0
20260504110503 24 228 16.1 19.3 0.00 0.00 0.00 36 1011.5
20260504110130 24 217 16.1 22.5 0.00 0.00 0.00 35 1012.9
20260504100504 23 284 14.5 17.7 0.00 0.00 0.00 39 1012.1